N256L KBOI-KOGD

Flight info

Callsign N256L
Flight time 1h 13m
Altitude 21000
Route ROARR LYONS OGD
Aircraft B58T/L-SDFGRY/C

Departure

Time 2026-04-12 06:17
Airport Boise Air Terminal/Gowen Field (KBOI)

Arrival

Time 2026-04-12 07:31
Airport Ogden Hinckley Airport (KOGD)
Time Latitude Longitude Altitude Speed Heading
2026-04-12 06:11 43.56477 -116.24072 2826 ft 0 kts 87°
2026-04-12 06:13 43.56477 -116.24069 2826 ft 3 kts 73°
2026-04-12 06:14 43.56512 -116.24028 2828 ft 14 kts 349°
2026-04-12 06:14 43.56584 -116.24123 2830 ft 21 kts 263°
2026-04-12 06:14 43.56646 -116.24272 2828 ft 18 kts 354°
2026-04-12 06:14 43.56784 -116.24271 2835 ft 23 kts
2026-04-12 06:15 43.56909 -116.24270 2834 ft 1 kts 359°
2026-04-12 06:15 43.56921 -116.24270 2855 ft 5 kts
2026-04-12 06:15 43.56981 -116.24238 2870 ft 13 kts 60°
2026-04-12 06:15 43.56976 -116.24172 2872 ft 0 kts 115°
2026-04-12 06:16 43.56974 -116.24166 2873 ft 3 kts 115°
2026-04-12 06:16 43.56828 -116.23742 2881 ft 94 kts 115°
2026-04-12 06:17 43.56482 -116.22745 3088 ft 129 kts 116°
2026-04-12 06:17 43.56047 -116.21575 3508 ft 142 kts 118°
2026-04-12 06:17 43.55596 -116.20374 4068 ft 137 kts 117°
2026-04-12 06:17 43.55169 -116.19232 4654 ft 131 kts 117°
2026-04-12 06:18 43.54807 -116.18086 5232 ft 131 kts 111°
2026-04-12 06:18 43.54513 -116.16853 5607 ft 143 kts 110°
2026-04-12 06:18 43.54237 -116.15492 6079 ft 145 kts 107°
2026-04-12 06:18 43.54011 -116.14141 6525 ft 151 kts 105°
2026-04-12 06:19 43.53770 -116.12739 7031 ft 148 kts 109°
2026-04-12 06:19 43.53478 -116.11410 7574 ft 146 kts 112°
2026-04-12 06:19 43.53182 -116.10051 8063 ft 148 kts 109°
2026-04-12 06:19 43.52944 -116.08682 8614 ft 147 kts 107°
2026-04-12 06:20 43.52719 -116.07296 9144 ft 149 kts 107°
2026-04-12 06:20 43.52523 -116.05863 9526 ft 162 kts 110°
2026-04-12 06:20 43.52063 -116.04393 9815 ft 168 kts 122°
2026-04-12 06:20 43.51514 -116.02959 10191 ft 171 kts 122°
2026-04-12 06:21 43.50973 -116.01485 10557 ft 174 kts 120°
2026-04-12 06:21 43.50450 -115.99977 10924 ft 175 kts 119°
2026-04-12 06:21 43.49934 -115.98455 11294 ft 176 kts 119°
2026-04-12 06:21 43.49419 -115.96921 11665 ft 177 kts 118°
2026-04-12 06:22 43.48906 -115.95379 12048 ft 177 kts 118°
2026-04-12 06:22 43.48392 -115.93841 12437 ft 175 kts 118°
2026-04-12 06:22 43.47894 -115.92345 12822 ft 173 kts 119°
2026-04-12 06:22 43.47396 -115.90851 13216 ft 171 kts 119°
2026-04-12 06:23 43.46900 -115.89367 13619 ft 170 kts 119°
2026-04-12 06:23 43.46407 -115.87888 13982 ft 170 kts 119°
2026-04-12 06:23 43.45912 -115.86411 14346 ft 170 kts 119°
2026-04-12 06:23 43.45416 -115.84930 14714 ft 171 kts 120°
2026-04-12 06:24 43.44915 -115.83440 15089 ft 172 kts 120°
2026-04-12 06:24 43.44412 -115.81939 15463 ft 173 kts 120°
2026-04-12 06:24 43.43905 -115.80428 15835 ft 174 kts 120°
2026-04-12 06:24 43.43399 -115.78916 16222 ft 174 kts 120°
2026-04-12 06:25 43.42891 -115.77402 16607 ft 174 kts 121°
2026-04-12 06:25 43.42380 -115.75880 16994 ft 175 kts 121°
2026-04-12 06:25 43.41869 -115.74361 17388 ft 175 kts 121°
2026-04-12 06:25 43.41531 -115.73354 17663 ft 175 kts 121°
2026-04-12 06:26 43.40850 -115.71333 18200 ft 176 kts 121°
2026-04-12 06:26 43.40332 -115.69797 18560 ft 177 kts 121°
2026-04-12 06:26 43.39814 -115.68258 18920 ft 178 kts 122°
2026-04-12 06:26 43.39468 -115.67231 19167 ft 178 kts 122°
2026-04-12 06:27 43.38946 -115.65684 19523 ft 179 kts 123°
2026-04-12 06:27 43.38422 -115.64130 19890 ft 179 kts 123°
2026-04-12 06:27 43.37899 -115.62580 20267 ft 179 kts 123°
2026-04-12 06:27 43.37379 -115.61037 20627 ft 176 kts 123°
2026-04-12 06:28 43.36869 -115.59522 20946 ft 177 kts 124°
2026-04-12 06:28 43.36323 -115.57932 20972 ft 191 kts 123°
2026-04-12 06:28 43.35735 -115.56230 21002 ft 203 kts 123°
2026-04-12 06:28 43.35114 -115.54424 20917 ft 214 kts 122°
2026-04-12 06:29 43.34476 -115.52542 20886 ft 220 kts 122°
2026-04-12 06:29 43.33824 -115.50613 20878 ft 225 kts 122°
2026-04-12 06:29 43.33160 -115.48643 20867 ft 229 kts 122°
2026-04-12 06:29 43.32491 -115.46653 20856 ft 228 kts 122°
2026-04-12 06:30 43.31829 -115.44684 20862 ft 227 kts 122°
2026-04-12 06:30 43.31169 -115.42727 20863 ft 225 kts 122°
2026-04-12 06:30 43.30511 -115.40783 20860 ft 224 kts 122°
2026-04-12 06:30 43.29856 -115.38853 20864 ft 223 kts 122°
2026-04-12 06:31 43.29141 -115.36991 20867 ft 218 kts 131°
2026-04-12 06:31 43.28115 -115.35527 20866 ft 211 kts 145°
2026-04-12 06:31 43.27040 -115.34187 20857 ft 212 kts 143°
2026-04-12 06:31 43.25971 -115.32789 20862 ft 212 kts 142°
2026-04-12 06:32 43.24906 -115.31382 20864 ft 212 kts 142°
2026-04-12 06:32 43.23845 -115.29980 20863 ft 211 kts 142°
2026-04-12 06:32 43.22783 -115.28583 20862 ft 211 kts 142°
2026-04-12 06:32 43.21722 -115.27192 20864 ft 211 kts 143°
2026-04-12 06:33 43.20657 -115.25801 20866 ft 211 kts 143°
2026-04-12 06:33 43.19608 -115.24433 20866 ft 211 kts 143°
2026-04-12 06:33 43.18545 -115.23050 20869 ft 211 kts 143°
2026-04-12 06:33 43.17467 -115.21649 20869 ft 211 kts 143°
2026-04-12 06:34 43.16414 -115.20281 20866 ft 211 kts 143°
2026-04-12 06:34 43.15347 -115.18895 20866 ft 211 kts 143°
2026-04-12 06:34 43.14281 -115.17512 20876 ft 211 kts 143°
2026-04-12 06:34 43.13213 -115.16128 20876 ft 212 kts 143°
2026-04-12 06:35 43.11072 -115.13353 20875 ft 212 kts 143°
2026-04-12 06:35 43.10004 -115.11969 20881 ft 212 kts 143°
2026-04-12 06:35 43.08935 -115.10585 20886 ft 212 kts 143°
2026-04-12 06:36 43.07863 -115.09197 20892 ft 212 kts 143°
2026-04-12 06:36 43.06789 -115.07811 20892 ft 212 kts 143°
2026-04-12 06:36 43.05715 -115.06423 20894 ft 212 kts 143°
2026-04-12 06:36 43.04642 -115.05034 20886 ft 212 kts 143°
2026-04-12 06:37 43.03575 -115.03655 20896 ft 211 kts 143°
2026-04-12 06:37 43.02510 -115.02280 20900 ft 210 kts 143°
2026-04-12 06:37 43.01452 -115.00916 20904 ft 209 kts 143°
2026-04-12 06:37 43.00399 -114.99557 20905 ft 208 kts 143°
2026-04-12 06:38 42.99353 -114.98209 20910 ft 207 kts 143°
2026-04-12 06:38 42.98307 -114.96862 20919 ft 206 kts 144°
2026-04-12 06:38 42.97274 -114.95534 20926 ft 207 kts 144°
2026-04-12 06:38 42.96228 -114.94190 20921 ft 206 kts 144°
2026-04-12 06:39 42.95184 -114.92847 20925 ft 206 kts 144°
2026-04-12 06:39 42.94144 -114.91510 20929 ft 205 kts 144°
2026-04-12 06:39 42.93103 -114.90173 20932 ft 205 kts 144°
2026-04-12 06:39 42.92063 -114.88838 20933 ft 205 kts 144°
2026-04-12 06:40 42.91023 -114.87504 20932 ft 205 kts 144°
2026-04-12 06:40 42.89986 -114.86173 20933 ft 205 kts 144°
2026-04-12 06:40 42.88946 -114.84840 20878 ft 205 kts 144°
2026-04-12 06:40 42.87917 -114.83522 20881 ft 205 kts 144°
2026-04-12 06:41 42.86877 -114.82190 20885 ft 205 kts 144°
2026-04-12 06:41 42.85839 -114.80861 20886 ft 205 kts 144°
2026-04-12 06:41 42.84799 -114.79531 20885 ft 205 kts 144°
2026-04-12 06:41 42.83758 -114.78199 20889 ft 205 kts 144°
2026-04-12 06:42 42.82720 -114.76870 20893 ft 205 kts 144°
2026-04-12 06:42 42.81681 -114.75541 20885 ft 205 kts 144°
2026-04-12 06:42 42.80673 -114.74254 20894 ft 205 kts 144°
2026-04-12 06:42 42.79636 -114.72931 20896 ft 204 kts 144°
2026-04-12 06:43 42.78598 -114.71607 20899 ft 204 kts 144°
2026-04-12 06:43 42.77594 -114.70234 20901 ft 206 kts 140°
2026-04-12 06:43 42.76679 -114.68716 20905 ft 209 kts 136°
2026-04-12 06:43 42.75800 -114.67140 20908 ft 209 kts 136°
2026-04-12 06:44 42.74915 -114.65579 20911 ft 208 kts 136°
2026-04-12 06:44 42.74033 -114.64043 20914 ft 208 kts 136°
2026-04-12 06:44 42.73140 -114.62489 20915 ft 208 kts 136°
2026-04-12 06:44 42.72248 -114.60933 20919 ft 208 kts 136°
2026-04-12 06:45 42.71356 -114.59377 20924 ft 208 kts 136°
2026-04-12 06:45 42.70464 -114.57822 20925 ft 209 kts 136°
2026-04-12 06:45 42.69571 -114.56263 20925 ft 208 kts 136°
2026-04-12 06:45 42.68677 -114.54703 20925 ft 208 kts 136°
2026-04-12 06:46 42.67799 -114.53171 20924 ft 208 kts 136°
2026-04-12 06:46 42.66908 -114.51618 20921 ft 208 kts 137°
2026-04-12 06:46 42.66018 -114.50067 20923 ft 208 kts 137°
2026-04-12 06:46 42.65121 -114.48509 20925 ft 210 kts 137°
2026-04-12 06:47 42.64216 -114.46939 20925 ft 212 kts 137°
2026-04-12 06:47 42.63306 -114.45358 20924 ft 213 kts 137°
2026-04-12 06:47 42.62392 -114.43770 20922 ft 213 kts 137°
2026-04-12 06:47 42.61477 -114.42181 20918 ft 214 kts 137°
2026-04-12 06:48 42.60562 -114.40589 20914 ft 214 kts 137°
2026-04-12 06:48 42.59646 -114.38998 20905 ft 214 kts 137°
2026-04-12 06:48 42.58727 -114.37404 20851 ft 214 kts 137°
2026-04-12 06:48 42.57810 -114.35811 20852 ft 214 kts 137°
2026-04-12 06:49 42.56893 -114.34221 20855 ft 214 kts 137°
2026-04-12 06:49 42.55976 -114.32633 20844 ft 214 kts 137°
2026-04-12 06:49 42.55058 -114.31044 20843 ft 214 kts 137°
2026-04-12 06:49 42.54140 -114.29454 20842 ft 214 kts 137°
2026-04-12 06:50 42.53223 -114.27868 20835 ft 213 kts 137°
2026-04-12 06:50 42.52310 -114.26283 20840 ft 213 kts 137°
2026-04-12 06:50 42.51408 -114.24721 20855 ft 213 kts 137°
2026-04-12 06:50 42.50493 -114.23147 20851 ft 213 kts 137°
2026-04-12 06:51 42.49578 -114.21573 20855 ft 213 kts 137°
2026-04-12 06:51 42.48662 -114.20000 20860 ft 212 kts 137°
2026-04-12 06:51 42.47747 -114.18421 20863 ft 213 kts 137°
2026-04-12 06:51 42.46837 -114.16848 20866 ft 212 kts 137°
2026-04-12 06:52 42.45923 -114.15271 20872 ft 212 kts 137°
2026-04-12 06:52 42.45010 -114.13698 20873 ft 213 kts 137°
2026-04-12 06:52 42.44095 -114.12124 20875 ft 213 kts 137°
2026-04-12 06:52 42.43182 -114.10555 20877 ft 213 kts 137°
2026-04-12 06:53 42.42265 -114.08979 20867 ft 213 kts 137°
2026-04-12 06:53 42.41352 -114.07410 20875 ft 212 kts 138°
2026-04-12 06:53 42.40439 -114.05842 20880 ft 212 kts 138°
2026-04-12 06:53 42.39527 -114.04276 20852 ft 212 kts 138°
2026-04-12 06:54 42.38627 -114.02732 20859 ft 211 kts 138°
2026-04-12 06:54 42.37716 -114.01172 20862 ft 211 kts 138°
2026-04-12 06:54 42.36806 -113.99613 20864 ft 211 kts 138°
2026-04-12 06:54 42.35894 -113.98052 20864 ft 211 kts 138°
2026-04-12 06:55 42.34986 -113.96497 20864 ft 211 kts 138°
2026-04-12 06:55 42.34075 -113.94940 20864 ft 211 kts 138°
2026-04-12 06:55 42.33166 -113.93386 20864 ft 211 kts 138°
2026-04-12 06:55 42.32254 -113.91829 20863 ft 211 kts 138°
2026-04-12 06:56 42.31346 -113.90276 20864 ft 211 kts 138°
2026-04-12 06:56 42.30435 -113.88722 20861 ft 211 kts 138°
2026-04-12 06:56 42.29521 -113.87163 20860 ft 211 kts 138°
2026-04-12 06:56 42.28620 -113.85627 20856 ft 211 kts 138°
2026-04-12 06:57 42.27709 -113.84074 20851 ft 211 kts 138°
2026-04-12 06:57 42.26797 -113.82521 20850 ft 211 kts 138°
2026-04-12 06:57 42.25883 -113.80964 20847 ft 212 kts 138°
2026-04-12 06:57 42.24966 -113.79403 20842 ft 212 kts 138°
2026-04-12 06:58 42.24050 -113.77845 20839 ft 211 kts 138°
2026-04-12 06:58 42.23133 -113.76288 20831 ft 211 kts 138°
2026-04-12 06:58 42.22221 -113.74738 20813 ft 211 kts 138°
2026-04-12 06:58 42.21309 -113.73188 20821 ft 211 kts 138°
2026-04-12 06:59 42.20397 -113.71639 20828 ft 211 kts 138°
2026-04-12 06:59 42.19478 -113.70082 20824 ft 212 kts 138°
2026-04-12 06:59 42.18572 -113.68547 20809 ft 212 kts 138°
2026-04-12 07:00 42.16728 -113.65426 20828 ft 214 kts 138°
2026-04-12 07:00 42.15797 -113.63851 20820 ft 215 kts 138°
2026-04-12 07:00 42.14864 -113.62274 20812 ft 215 kts 138°
2026-04-12 07:00 42.13933 -113.60697 20805 ft 214 kts 138°
2026-04-12 07:01 42.13008 -113.59130 20808 ft 213 kts 138°
2026-04-12 07:01 42.12085 -113.57568 20811 ft 213 kts 138°
2026-04-12 07:01 42.11161 -113.56008 20810 ft 212 kts 137°
2026-04-12 07:01 42.10239 -113.54451 20815 ft 212 kts 137°
2026-04-12 07:02 42.09320 -113.52902 20818 ft 212 kts 137°
2026-04-12 07:02 42.08401 -113.51353 20820 ft 212 kts 137°
2026-04-12 07:02 42.07490 -113.49820 20820 ft 212 kts 137°
2026-04-12 07:02 42.06570 -113.48271 20823 ft 212 kts 137°
2026-04-12 07:03 42.05645 -113.46715 20819 ft 212 kts 137°
2026-04-12 07:03 42.04724 -113.45164 20821 ft 212 kts 137°
2026-04-12 07:03 42.03800 -113.43611 20820 ft 212 kts 137°
2026-04-12 07:03 42.02879 -113.42063 20801 ft 211 kts 137°
2026-04-12 07:04 42.01961 -113.40518 20807 ft 211 kts 137°
2026-04-12 07:04 42.01044 -113.38979 20812 ft 211 kts 137°
2026-04-12 07:04 42.00128 -113.37441 20819 ft 210 kts 137°
2026-04-12 07:04 41.99212 -113.35907 20826 ft 210 kts 137°
2026-04-12 07:05 41.98294 -113.34369 20838 ft 211 kts 137°
2026-04-12 07:05 41.97372 -113.32825 20828 ft 212 kts 137°
2026-04-12 07:05 41.96450 -113.31279 20815 ft 211 kts 137°
2026-04-12 07:05 41.95535 -113.29744 20827 ft 210 kts 137°
2026-04-12 07:06 41.94632 -113.28236 20821 ft 209 kts 137°
2026-04-12 07:06 41.93723 -113.26713 20819 ft 208 kts 137°
2026-04-12 07:06 41.92817 -113.25198 20824 ft 208 kts 137°
2026-04-12 07:06 41.91903 -113.23665 20826 ft 207 kts 137°
2026-04-12 07:07 41.90995 -113.22152 20851 ft 209 kts 137°
2026-04-12 07:07 41.90090 -113.20651 20849 ft 211 kts 137°
2026-04-12 07:07 41.89160 -113.19110 20697 ft 217 kts 137°
2026-04-12 07:07 41.88176 -113.17489 20238 ft 227 kts 137°
2026-04-12 07:08 41.87177 -113.15832 19770 ft 230 kts 137°
2026-04-12 07:08 41.86171 -113.14155 19306 ft 232 kts 136°
2026-04-12 07:08 41.85158 -113.12462 18847 ft 233 kts 136°
2026-04-12 07:08 41.84139 -113.10762 18393 ft 234 kts 136°
2026-04-12 07:09 41.83128 -113.09072 17896 ft 229 kts 136°
2026-04-12 07:09 41.82143 -113.07423 17383 ft 224 kts 137°
2026-04-12 07:09 41.81177 -113.05806 16879 ft 221 kts 137°
2026-04-12 07:09 41.80218 -113.04213 16385 ft 218 kts 137°
2026-04-12 07:10 41.79266 -113.02637 15894 ft 217 kts 137°
2026-04-12 07:10 41.78318 -113.01068 15425 ft 215 kts 136°
2026-04-12 07:10 41.77391 -112.99534 15069 ft 210 kts 136°
2026-04-12 07:10 41.76504 -112.98051 15029 ft 200 kts 137°
2026-04-12 07:11 41.75632 -112.96598 15013 ft 195 kts 137°
2026-04-12 07:11 41.74802 -112.95222 15005 ft 191 kts 137°
2026-04-12 07:11 41.73968 -112.93856 15002 ft 188 kts 138°
2026-04-12 07:11 41.73147 -112.92500 15000 ft 186 kts 137°
2026-04-12 07:12 41.72336 -112.91152 15000 ft 187 kts 137°
2026-04-12 07:12 41.71506 -112.89786 14997 ft 192 kts 138°
2026-04-12 07:12 41.70650 -112.88387 14997 ft 196 kts 137°
2026-04-12 07:12 41.69783 -112.86968 14998 ft 198 kts 137°
2026-04-12 07:13 41.69204 -112.86019 14993 ft 199 kts 137°
2026-04-12 07:13 41.68325 -112.84573 14988 ft 200 kts 137°
2026-04-12 07:13 41.67444 -112.83122 14987 ft 201 kts 137°
2026-04-12 07:13 41.66564 -112.81670 14987 ft 201 kts 137°
2026-04-12 07:14 41.65682 -112.80218 14979 ft 201 kts 137°
2026-04-12 07:14 41.64800 -112.78764 14994 ft 201 kts 137°
2026-04-12 07:14 41.63922 -112.77317 14985 ft 201 kts 137°
2026-04-12 07:14 41.63041 -112.75869 14992 ft 201 kts 137°
2026-04-12 07:15 41.62160 -112.74421 14997 ft 201 kts 137°
2026-04-12 07:15 41.61278 -112.72974 14999 ft 201 kts 137°
2026-04-12 07:15 41.60391 -112.71519 14980 ft 202 kts 137°
2026-04-12 07:15 41.59479 -112.70036 14747 ft 211 kts 137°
2026-04-12 07:16 41.58530 -112.68491 14507 ft 217 kts 137°
2026-04-12 07:16 41.57583 -112.66943 14275 ft 213 kts 137°
2026-04-12 07:16 41.56684 -112.65446 14032 ft 201 kts 137°
2026-04-12 07:16 41.55830 -112.64024 13784 ft 193 kts 137°
2026-04-12 07:17 41.54997 -112.62648 13546 ft 188 kts 137°
2026-04-12 07:17 41.54179 -112.61305 13265 ft 185 kts 137°
2026-04-12 07:17 41.53365 -112.59977 13010 ft 184 kts 137°
2026-04-12 07:17 41.52554 -112.58657 12745 ft 183 kts 137°
2026-04-12 07:18 41.51747 -112.57343 12486 ft 183 kts 137°
2026-04-12 07:18 41.50943 -112.56034 12224 ft 181 kts 137°
2026-04-12 07:18 41.50148 -112.54738 11952 ft 180 kts 137°
2026-04-12 07:18 41.49358 -112.53447 11711 ft 179 kts 137°
2026-04-12 07:19 41.48569 -112.52167 11464 ft 179 kts 137°
2026-04-12 07:19 41.47787 -112.50898 11232 ft 180 kts 137°
2026-04-12 07:19 41.46994 -112.49608 10988 ft 180 kts 137°
2026-04-12 07:19 41.46204 -112.48322 10719 ft 178 kts 137°
2026-04-12 07:20 41.45405 -112.47019 10471 ft 184 kts 137°
2026-04-12 07:20 41.44580 -112.45683 10233 ft 189 kts 137°
2026-04-12 07:20 41.43741 -112.44322 10048 ft 188 kts 138°
2026-04-12 07:20 41.42917 -112.42977 10023 ft 187 kts 138°
2026-04-12 07:21 41.42099 -112.41642 10005 ft 185 kts 138°
2026-04-12 07:21 41.41286 -112.40319 9999 ft 184 kts 138°
2026-04-12 07:21 41.40476 -112.39006 9995 ft 183 kts 138°
2026-04-12 07:21 41.39670 -112.37697 9986 ft 183 kts 138°
2026-04-12 07:22 41.38860 -112.36385 9912 ft 187 kts 138°
2026-04-12 07:22 41.38007 -112.35015 9664 ft 196 kts 137°
2026-04-12 07:22 41.37128 -112.33596 9407 ft 200 kts 137°
2026-04-12 07:22 41.36243 -112.32161 9152 ft 201 kts 137°
2026-04-12 07:23 41.35353 -112.30718 8943 ft 202 kts 137°
2026-04-12 07:23 41.34462 -112.29273 8695 ft 200 kts 136°
2026-04-12 07:23 41.33595 -112.27858 8438 ft 195 kts 136°
2026-04-12 07:23 41.32747 -112.26480 8185 ft 190 kts 136°
2026-04-12 07:24 41.31915 -112.25132 7938 ft 187 kts 136°
2026-04-12 07:24 41.31095 -112.23805 7700 ft 183 kts 136°
2026-04-12 07:24 41.30295 -112.22513 7469 ft 180 kts 136°
2026-04-12 07:24 41.29512 -112.21249 7245 ft 179 kts 135°
2026-04-12 07:25 41.28735 -112.19992 7138 ft 170 kts 136°
2026-04-12 07:25 41.28111 -112.18683 7132 ft 168 kts 122°
2026-04-12 07:25 41.27731 -112.17218 7124 ft 168 kts 111°
2026-04-12 07:25 41.27492 -112.15709 7121 ft 166 kts 108°
2026-04-12 07:26 41.27292 -112.14196 6969 ft 166 kts 107°
2026-04-12 07:26 41.27110 -112.12692 6744 ft 164 kts 107°
2026-04-12 07:26 41.26930 -112.11181 6381 ft 166 kts 106°
2026-04-12 07:26 41.26743 -112.09667 6004 ft 167 kts 105°
2026-04-12 07:27 41.26537 -112.08159 5735 ft 163 kts 106°
2026-04-12 07:27 41.26381 -112.06708 5609 ft 153 kts 107°
2026-04-12 07:27 41.26231 -112.05384 5588 ft 142 kts 107°
2026-04-12 07:27 41.26108 -112.04119 5544 ft 134 kts 107°
2026-04-12 07:28 41.25994 -112.02990 5555 ft 114 kts 107°
2026-04-12 07:28 41.25903 -112.01948 5560 ft 120 kts 106°
2026-04-12 07:28 41.25770 -112.00802 5538 ft 129 kts 105°
2026-04-12 07:28 41.25348 -111.99779 5513 ft 128 kts 140°
2026-04-12 07:29 41.24562 -111.99647 5547 ft 129 kts 210°
2026-04-12 07:29 41.23869 -112.00488 5589 ft 138 kts 219°
2026-04-12 07:29 41.23225 -112.01302 5431 ft 109 kts 210°
2026-04-12 07:29 41.22521 -112.01512 5103 ft 105 kts 178°
2026-04-12 07:30 41.21830 -112.01502 4936 ft 93 kts 179°
2026-04-12 07:30 41.21192 -112.01495 4761 ft 83 kts 179°
2026-04-12 07:30 41.20631 -112.01496 4572 ft 81 kts 181°
2026-04-12 07:30 41.20057 -112.01498 4474 ft 82 kts 181°
2026-04-12 07:31 41.19603 -112.01496 4445 ft 46 kts 180°
2026-04-12 07:31 41.19351 -112.01494 4446 ft 28 kts 180°
2026-04-12 07:31 41.19211 -112.01495 4446 ft 18 kts 177°
2026-04-12 07:31 41.19098 -112.01491 4447 ft 11 kts 164°
2026-04-12 07:32 41.19112 -112.01406 4449 ft 15 kts 51°
2026-04-12 07:32 41.19160 -112.01277 4449 ft 1 kts 72°